STARLINK-1325, 45554

Orbit data source: Space-Track

STARLINK-1325, 45554 is a payload satellite owned by SpaceX/Seattle (US) in LEO that was launched on Wed, 22 Apr 2020 UTC via an FALCON 9 launch vehicle from the Air Force Eastern Test Range (AFETR). Payload-class satellites include a variety of spacecraft equipped with specific instruments for various scientific and technological missions. These include communications satellites like Starlink; space stations such as the ISS; scientific satellites like the Hubble; Earth observation satellites from companies like Planet Labs, Umbra, and HawkEye 360; GPS; miniature CubeSats for education and research; and military/defense satellites.

Loading next visibility...
Identifier
45554, 2020-025Z
Orbit
LEO
Country
Flag of USUS
Related business
Manufacturer
SpaceX/Seattle
Mission
Partially operational Commercial Communications
Bus & Motor
STARLINK, Unknown motor
Mass
260 kg wet, ~248 kg dry
Launch date (UTC)
2020-04-22 (5 years ago)
Launch vehicle
FALCON 9
Launch site
Air Force Eastern Test Range (AFETR)
Object type
Payload
Rocket body
Debris
Shape & HBR
Box + 1 Pan, 10.1 m
Radar Cross Section
13.562 m², Large (>1 m²)

Expand to show TLE details & history
Last TLE update: 7 hours ago

TLE from 7 hours ago
0 STARLINK-1325
1 45554U 20025Z   25288.66670139  .00295402  00000-0  43788-2 0  9999
2 45554  53.0589 329.4266 0001570  73.3209 245.2997 15.53697548  5886
Epoch: 2025-10-15T16:00Z
TLE epoch observation values (Epoch: 2025-10-15T16:00:03.000Z)
Latitude
-32.11459°
Longitude
36.98574°
Altitude
416.345 km
Speed
7.661 km/s
True Right ascension
20h 05m 44s
True Declination
-31° 57' 08"
Sunlit
Object was in daylight at epoch
Visualization orbit readout
Latitude
Unknown
Longitude
Unknown
Altitude
Unknown
Speed
Unknown
Apparent Right ascension
Unknown
Apparent Declination
Unknown
Sunlit
N/A
Visualization observer readout
Local Sidereal Time
17:40:32
Azimuth
Unknown
Elevation
Unknown
Doppler factor
Unknown
Orbital elements
Apogee altitude
407.282 km
Perigee altitude
405.152 km
Semi-major axis
6,784.354 km
Eccentricity
0.00016
Inclination
53.0589°
RAAN
329.4266°
Arg. of periapsis
73.3209°
True anomaly
245.28336°
Mean anomaly
245.2997°
Eccentric anomaly
245.29153°
Mean motion
3.88401 °/min
Orbital period
92.69 mins
BSTAR
0.0043788
Loading maneuver chart data...
Computing Atmospheric mass density...
Loading historical data...
Loading historical data...
Loading historical data...
Loading historical data...
Loading historical data...
Loading historical data...
Loading historical data...

Documentation

Showing up to 5 results
|